Workout of the Day

« September 7, 2022 »

4 x 6 minutes with rate changes. 2 minutes rest between intervals.

4 x 6 minutes of work with two minutes rest between intervals. Each 6 minute interval is split into 3 minutes then 2 minutes then 1 minute at different stroke rates or cadence. RowErg: 3 minutes at 22, 2 minutes at 24, 1 minute at 28. SkiErg: 3 minutes at 33, 2 minutes at 36, 1 minute at 42. BikeErg: 3 minutes at 78, 2 minutes at 82, 1 minute at 90.

Pos. Name Age Country Result Pace
551 F G Paul Clark 60 CAN 5,529 2:10.2
552 Martin Tan 49 SGP 5,526 2:10.2
553 Nick Babiak 42 USA 5,524 2:10.3
554 Rupe Hussey - USA 5,523 2:10.3
555 Kyle Morgan 37 USA 5,522 2:10.3
555 David Hollenbaugh 53 USA 5,522 2:10.3
555 Rich Clifford 42 SUI 5,522 2:10.3
555 Paul Williams 52 USA 5,522 2:10.3
559 Nicole McGlashan 44 USA 5,521 2:10.4
560 Herbert Hessels 64 NED 5,520 2:10.4
561 Sarah Lewis 39 GBR 5,516 2:10.5
562 Bob Chandler 77 GBR 5,515 2:10.5
562 Craig Tinning 40 GBR 5,515 2:10.5
564 Wolfgang Cibulka 63 GER 5,514 2:10.5
564 Miguel Cedres 62 ESP 5,514 2:10.5
566 Leif Creswell 21 USA 5,508 2:10.7
566 Hyuk Lee 39 USA 5,508 2:10.7
568 Jason Fleischer 54 GBR 5,507 2:10.7
569 Nik Proctor 63 GBR 5,506 2:10.7
569 Tim Burch 50 USA 5,506 2:10.7
571 Paul Askew 58 GBR 5,505 2:10.7
572 Hamid Ramos 42 VEN 5,504 2:10.8
572 Alessandro Tomaselli 51 ITA 5,504 2:10.8
574 Randall StPeters 47 USA 5,503 2:10.8
574 Ali Bryan-Jones 48 USA 5,503 2:10.8
576 BC Adams 65 GBR 5,501 2:10.8
577 Ben Robinson 36 GBR 5,499 2:10.9
577 Luke Burns 38 AUS 5,499 2:10.9
579 Alexander Weiss 33 USA 5,498 2:10.9
580 Michał Bryk 40 POL 5,496 2:11.0
580 Piotr Gimier 45 POL 5,496 2:11.0
582 Christian Blount 31 NED 5,495 2:11.0
583 Steven Ulrich 59 USA 5,494 2:11.0
583 Dennis Stanfill 58 THA 5,494 2:11.0
583 Mike Hall 49 GBR 5,494 2:11.0
586 Dan Martin 67 USA 5,493 2:11.0
586 Stephen Lamb 44 USA 5,493 2:11.0
588 Andrea Faganello 51 GER 5,491 2:11.1
588 Oliver Klimkowsky 52 GER 5,491 2:11.1
588 Alexey Klimin 46 USA 5,491 2:11.1
588 Vinicio Vanzetta 60 ITA 5,491 2:11.1
592 Stephen Weston 38 CAN 5,489 2:11.1
592 Alex Sider 49 USA 5,489 2:11.1
594 Andrew Robb 38 GBR 5,488 2:11.1
594 Dale James 39 GBR 5,488 2:11.1
596 MICHAEL REEVES 50 USA 5,485 2:11.2
596 Roger Dix 66 GBR 5,485 2:11.2
596 Achim Krimmer 55 GER 5,485 2:11.2
599 Pieter Rosenlöcher 37 GER 5,484 2:11.2
599 Sándor Pethe 26 HUN 5,484 2:11.2